Flag for Saudi Arabia Weather past 2 weeks in Jeddah, Saudi Arabia

Now
84 °F

Scattered clouds.


Feels Like: 84 °F
Forecast: 75 / 87 °F
Wind: 12 mph from Northwest

Location: Jeddah King Abdul Aziz International Airport

Current Time: Mar 5, 2015 at 3:50:02 PM

Latest Report: Mar 5, 2015 at 3:00 PM


Visibility: N/A

Pressure: 29.80 "Hg

Humidity: 43%

Dew point: 59 °F

Location of JeddahLocation

Historic Weather in Jeddah — Graph

°F

Jeddah temperature yesterday

Maximum temperature yesterday: 86 °F (at 1:00 PM)
Minimum temperature yesterday: 73 °F (at 7:00 AM)
Average temperature yesterday: 79 °F

Past Weeks' High & Low Weather Summary

 TemperatureHumidityPressure
High95 °F (Feb 27, 1:00 PM)83% (Mar 1, 7:00 AM)30.01 "Hg (Mar 1, 7:00 AM)
Low63 °F (Feb 21, 5:00 AM)15% (Feb 27, 1:00 PM)29.74 "Hg (Feb 25, 3:00 AM)
Average78 °F55%29.87 "Hg
* Reported Feb 18 2:00 PM — Mar 5 2:00 PM, Jeddah, Weather by CustomWeather, © 2015

Note: Actual official high and low records may vary slightly from our data, if they occured in-between our weather recording intervals... More about our weather records

Advertising

Jeddah weather history for previous 24 hours

 ConditionsComfort  
Time TempWeatherWind HumidityBarometerVisibility
2:00 PM
Thu, Mar 5
86 °FScattered clouds.13 mph40%29.80 "HgN/A
1:00 PM84 °FScattered clouds.14 mph43%29.83 "HgN/A
12:00 PM84 °FScattered clouds.9 mph43%29.86 "HgN/A
11:00 AM82 °FScattered clouds.12 mph48%29.86 "HgN/A
10:00 AM81 °FSunny.10 mph58%29.86 "Hg10 mi
9:00 AM77 °FSunny.10 mph65%29.86 "Hg10 mi
8:00 AM73 °FPassing clouds.8 mph74%29.86 "HgN/A
7:00 AM72 °FSunny.7 mph78%29.86 "Hg10 mi
6:00 AM73 °FClear.9 mph74%29.83 "Hg10 mi
5:00 AM73 °FClear.9 mph74%29.80 "Hg10 mi
4:00 AM73 °FClear.12 mph74%29.80 "Hg10 mi
3:00 AM75 °FClear.9 mph74%29.80 "Hg10 mi
2:00 AM75 °FClear.9 mph74%29.83 "Hg10 mi
1:00 AM75 °FClear.12 mph74%29.86 "Hg10 mi
12:00 AM75 °FClear.9 mph74%29.86 "Hg10 mi
11:00 PM
Wed, Mar 4
75 °FClear.9 mph74%29.89 "Hg10 mi
10:00 PM77 °FClear.12 mph69%29.89 "Hg10 mi
9:00 PM77 °FClear.12 mph61%29.86 "Hg10 mi
8:00 PM77 °FClear.14 mph61%29.86 "Hg10 mi
7:00 PM77 °FClear.18 mph61%29.83 "Hg10 mi
6:00 PM81 °FPartly sunny.16 mph54%29.83 "HgN/A
5:00 PM84 °FPartly sunny.16 mph55%29.83 "HgN/A
4:00 PM84 °FSunny.17 mph55%29.83 "Hg10 mi
3:00 PM84 °FSunny.18 mph48%29.83 "Hg10 mi
Weather by CustomWeather, © 2015

See weather overviewHow to use our weather pages